Regional Weather Roundup
Issued by NWS

Home | Current Version | Previous Version | Graphics & Text | Print | Product List | Glossary Off
Versions: 1 2 3 4 5 6 7 8 9 10 11 12 13 14 15 16 17 18 19 20 21 22 23 24 25 26 27 28 29 30 31 32 33 34 35 36 37 38 39 40 41 42 43 44 45 46 47 48 49 50

000
ASUS43 KDMX 071801
RWRIA

WEATHER ROUNDUP FOR IOWA
NATIONAL WEATHER SERVICE DES MOINES IA
1200 PM CST WED DEC 07 2016

NOTE: "FAIR" INDICATES FEW OR NO CLOUDS BELOW 12,000 FEET WITH NO
SIGNIFICANT WEATHER AND/OR OBSTRUCTIONS TO VISIBILITY.

* - THESE STATIONS ARE NOT NWS STATIONS...THUS NOT UNDER NWS
QUALITY CONTROL.  THEY ALSO DO NOT REPORT WEATHER SUCH
AS PRECIPITATION OR FOG.

IAZ001>003-012>014-020>022-031>034-043>046-071900-
   NORTHWEST IOWA

CITY           SKY/WX    TMP DP  RH WIND       PRES   REMARKS
CARROLL *      SUNNY     21  10  63 W20G28    30.23S WCI   6
CHEROKEE *     CLOUDY    19   9  64 W15G26    30.23F WCI   5
DENISON *      MOSUNNY   19   9  63 W16G24    30.24F WCI   5
LE MARS *      CLOUDY    18   7  62 W20       30.27F WCI   1
ORANGE CITY *  CLOUDY    19  10  68 W22       30.22R WCI   3
SHELDON *      CLOUDY    18   9  68 W21G29    30.19S WCI   1
SIOUX CITY     CLOUDY    21   7  54 W20       30.29F WCI   6
6HR MIN TEMP:  15; 6HR MAX TEMP:  21;

SPENCER        SUNNY     19   8  62 W35       30.18F WCI  -1
6HR MIN TEMP:   9; 6HR MAX TEMP:  19;

STORM LAKE *   MOSUNNY   18   9  68 W22G28    30.20F WCI   0
$$

IAZ055>058-069>071-079>083-090>094-071900-
   SOUTHWEST IOWA

CITY           SKY/WX    TMP DP  RH WIND       PRES   REMARKS
ATLANTIC *     CLOUDY    21  10  63 W14G20    30.28S WCI   8
AUDUBON *      MOSUNNY   21  10  63 W14G21    30.25S WCI   8
CLARINDA *     PTSUNNY   23  12  63 NW10      30.34R WCI  12
COUNCIL BLFS * PTSUNNY   19   9  63 NW13G20   30.30F WCI   7
CRESTON *      PTSUNNY   21  10  63 NW17G23   30.26R WCI   7
HARLAN  *      CLOUDY    19  10  68 W17       30.31S WCI   4
LAMONI         MOSUNNY   24  12  60 W15       30.26R WCI  11
6HR MIN TEMP:  20; 6HR MAX TEMP:  26;

RED OAK *      CLOUDY    21  10  63 NW13      30.31S WCI   9
SHENANDOAH *   CLOUDY    23  10  58 NW10      30.34R WCI  12
$$

IAZ047>049-059>061-072>074-084-071900-
   CENTRAL IOWA

CITY           SKY/WX    TMP DP  RH WIND       PRES   REMARKS
AMES           CLOUDY    22  13  68 W17G24    30.22S WCI   8
6HR MIN TEMP:  15; 6HR MAX TEMP:  22;

ANKENY *       PTSUNNY   21  10  63 W18G24    30.24F WCI   6
BOONE *        MOSUNNY   21  10  63 W15G22    30.20S WCI   8
CHARITON *     MOSUNNY   23  12  63 NW15G21   30.23S WCI  10
DES MOINES     CLOUDY    23  11  60 NW18      30.23F WCI   9
6HR MIN TEMP:  18; 6HR MAX TEMP:  23;

GRINNELL*      SUNNY     23  15  69 W20       30.18F WCI   9
KNOXVILLE *    SUNNY     25  10  54 W15G22    30.21R WCI  12
MARSHALLTOWN   MOSUNNY   21  12  68 W18       30.18F WCI   6
6HR MIN TEMP:  15; 6HR MAX TEMP:  21;

NEWTON *       SUNNY     23  14  68 W17G24    30.20S WCI   9
PELLA *        SUNNY     25  13  60 NW14G23   30.23S WCI  13
PERRY *          N/A     22  15  74 W20       30.24S WCI   7
$$

IAZ004>006-015-016-023>025-035-036-071900-
   NORTH CENTRAL IOWA

CITY           SKY/WX    TMP DP  RH WIND       PRES   REMARKS
ALGONA *       SUNNY     21  10  63 W20G28    30.15S WCI   6
CLARION *      SUNNY     21  12  68 W20       30.15F WCI   6
ESTHERVILLE    SUNNY     19  10  68 W25G33    30.14S WCI   1
6HR MIN TEMP:   9; 6HR MAX TEMP:  19;

FORT DODGE *   SUNNY     21  10  63 W15G25    30.19F WCI   8
MASON CITY     SUNNY     20  10  65 W21       30.13F WCI   4
6HR MIN TEMP:  12; 6HR MAX TEMP:  20;

WEBSTER CITY * SUNNY     21  12  68 W17G24    30.17S WCI   7
IOWA FALLS *     N/A     21  14  73 W17G23    30.17F WCI   7
$$

IAZ007>011-017>019-026>030-037>042-050>054-066-071900-
   NORTHEAST IOWA

CITY           SKY/WX    TMP DP  RH WIND       PRES   REMARKS
CEDAR RAPIDS   CLOUDY    21  16  81 W18       30.15F WCI   6
6HR MIN TEMP:  17; 6HR MAX TEMP:  21;

CHARLES CITY * CLOUDY    18  10  73 W18       30.12F WCI   2
CLINTON *        N/A     24  18  77 W20       30.14F WCI  10
DECORAH *      CLOUDY    16  10  79 W12G21    30.08F WCI   3
DUBUQUE        CLOUDY    18  12  77 W17       30.10F WCI   3
6HR MIN TEMP:  16; 6HR MAX TEMP:  18; 6HR PCP: TRACE;

MONTICELLO *   CLOUDY    21  14  73 W18G24    30.13F WCI   6
OELWEIN *      PTSUNNY   18  12  79 W17       30.13F WCI   2
WATERLOO       CLOUDY    19  10  68 W14       30.14F WCI   6
6HR MIN TEMP:  15; 6HR MAX TEMP:  19;

$$

IAZ064-065-067-068-078-071900-
   EAST CENTRAL IOWA

CITY           SKY/WX    TMP DP  RH WIND       PRES   REMARKS
DAVENPORT      CLOUDY    24  16  71 W17       30.15F WCI  11
6HR MIN TEMP:  21; 6HR MAX TEMP:  25;

IOWA CITY      MOSUNNY   24  14  65 W17G24    30.19F WCI  11
6HR MIN TEMP:  20; 6HR MAX TEMP:  24;

MUSCATINE *    CLOUDY    27  16  63 NW15      30.19F WCI  15
QUAD CITIES    CLOUDY    27  16  63 W9G21     30.15F WCI  18
6HR MIN TEMP:  23; 6HR MAX TEMP:  29;

$$

IAZ062-063-075>077-085>089-095>099-071900-
   SOUTHEAST IOWA

CITY           SKY/WX    TMP DP  RH WIND       PRES   REMARKS
BURLINGTON     PTSUNNY   28  16  60 W7        30.20S WCI  21
6HR MIN TEMP:  24; 6HR MAX TEMP:  28;

FAIRFIELD *    MOSUNNY   27  14  59 W14       30.20S WCI  15
FORT MADISON * CLOUDY    28  18  64 W10       30.22S WCI  19
KEOKUK *       CLOUDY    30  16  55 W10       30.21F WCI  21
OSKALOOSA *      N/A     25  15  65 W20       30.22R WCI  11
CENTERVILLE *    N/A     27  12  54 W16       30.25R WCI  14
OTTUMWA        MOSUNNY   27  13  55 W15       30.21S WCI  15
6HR MIN TEMP:  19; 6HR MAX TEMP:  27;

WASHINGTON *   CLOUDY    25  16  68 NW17      30.20S WCI  11
$$

ABBREVIATIONS USED IN REMARKS
   TC - TEMPERATURES IN CELSIUS
  WCI - WIND CHILL INDEX
   HX - HEAT INDEX
  VSB - VISIBILITY
$$





USA.gov is the U.S. government's official web portal to all federal, state and local government web resources and services.